SL-16 DEB

Satellite information

Favourite Embed

Satellite Type and Status

DEBRISIN ORBIT

Key statistics

Satellite SL-16 DEB at a glance.

Uptime

12043

Days in orbit

Revolutions

≈ 14.4

Per day

Orbit

LEO

Low Earth Orbit

Inclination

71.0

Latest

Satellite identification and parameters

Extended collection of information and parameters for SL-16 DEB.

Object identification

Identified? True

Debris? True

Object name: SL-16 DEB

International designator: 1992-093CW

Object number (NORAD): 22405

Object ID (CCSDS): 22405

Country: COMMONWEALTH OF INDEPENDENT STATES (CIS)

Current information (Y/N): Y

RCS size: MEDIUM

Orbital parameters

Period: 99.832 minutes

Inclination: 71.0358 deg

SMA: 7128.635 km

Apoapsis: 837.456 km

Periapsis: 663.545 km

RAAN: 294.6622 deg

Eccentricy: 0.0121981

Argument of periapsis: 168.7177 deg

Mean anomaly: 191.6742 deg

Mean motion: 14.42424726 rev/day

Mean motion (dot): 0.00000456 rev/day2

B* drag term: 0.00014139713 1/REarth

Two-line elements (TLE)

Creation date: Dec. 14, 2025, 6:24 p.m.

Reference frame: TEME

Reference center: EARTH

Epoch: Dec. 14, 2025, 6:08 a.m. UTC

TLE line 0: 0 SL-16 DEB

TLE line 1: 1 22405U 92093CW 25348.25594677 .00000456 00000-0 14140-3 0 9991

TLE line 2: 2 22405 71.0358 294.6622 0121981 168.7177 191.6742 14.42424726707919

Live tracking on map

Real-time ground track for satellite SL-16 DEB.

In-orbit conjunctions

A list of the most updated potential collisions computed for object SL-16 DEB.

Target Orbit TCA Probability of collision Miss distance Type
FENGYUN 1C DEB SSO 2024-11-12 05:03:16 0.0001699354 800.0 (m) DEBRIS
CZ-4 DEB SSO 2024-09-25 06:56:18 0.0003201219 277.0 (m) DEBRIS

Associated space launch

Second generation ELING satellite

SL-16 DEB was lifted into orbit during the mission ‘Zenit-2 | Tselina-2 12’, on board a Zenit-2 space rocket.

The launch took place on Dec. 25, 1992, 5:56 a.m. from 45/1.

For more information about the launch, click the button.

Launch to space Zenit-2 | Tselina-2 12
Zenit-2 | Tselina-2 12

Agency: N/A

Status: Launch Successful

Launch date: Dec. 25, 1992, 5:56 a.m. UTC

Rocket: Zenit-2

Launch pad: 45/1

Location: Baikonur Cosmodrome, Republic of Kazakhstan

...

Latest news about this satellite

There are no fresh news available about this satellite. Check back as we update our databases every day.


Newsletter sign-up

Weekly statistics, charts and insights to help you stay on top of the space industry.